This is the latest recevied weather packets stored in our database for station/object KC5TIL-3. If no packets are shown the sender has not sent any weather packets the latest 10 day(s).
| Time | Temp. | Humidity | Pressure | Rain* | Wind** | Luminosity | Snow |
|---|---|---|---|---|---|---|---|
| 1787640056 | 32.22° C | 12% | 1009.8 hPa | 0 mm | 3.13 m/s, 172° | - | - |
| 1787639754 | 32.22° C | 12% | 1009.8 hPa | 0 mm | 3.13 m/s, 227° | - | - |
| 1787639455 | 32.22° C | 12% | 1009.8 hPa | 0 mm | 4.02 m/s, 202° | - | - |
| 1787639153 | 32.22° C | 12% | 1009.8 hPa | 0 mm | 3.13 m/s, 218° | - | - |
| 1787638855 | 32.78° C | 12% | 1009.8 hPa | 0 mm | 4.47 m/s, 184° | - | - |
| 1787638557 | 32.78° C | 12% | 1010.8 hPa | 0 mm | 5.36 m/s, 201° | - | - |
| 1787638255 | 32.78° C | 12% | 1010.8 hPa | 0 mm | 3.13 m/s, 179° | - | - |
| 1787637957 | 32.78° C | 12% | 1010.8 hPa | 0 mm | 2.68 m/s, 233° | - | - |
| 1787637659 | 32.78° C | 12% | 1009.8 hPa | 0 mm | 3.13 m/s, 211° | - | - |
| 1787637357 | 33.33° C | 12% | 1009.8 hPa | 0 mm | 3.58 m/s, 194° | - | - |
| 1787637059 | 33.33° C | 12% | 1009.8 hPa | 0 mm | 4.02 m/s, 202° | - | - |
| 1787636761 | 33.33° C | 12% | 1010.8 hPa | 0 mm | 3.58 m/s, 214° | - | - |
| 1787636455 | 33.33° C | 12% | 1010.8 hPa | 0 mm | 3.58 m/s, 199° | - | - |
| 1787636157 | 33.33° C | 12% | 1010.8 hPa | 0 mm | 3.58 m/s, 222° | - | - |
| 1787635859 | 33.33° C | 11% | 1010.8 hPa | 0 mm | 3.58 m/s, 213° | - | - |
| 1787635557 | 33.33° C | 11% | 1010.8 hPa | 0 mm | 3.58 m/s, 219° | - | - |
| 1787635255 | 33.33° C | 11% | 1010.8 hPa | 0 mm | 3.13 m/s, 147° | - | - |
| 1787634957 | 33.89° C | 11% | 1010.8 hPa | 0 mm | 3.13 m/s, 131° | - | - |
| 1787634655 | 33.89° C | 11% | 1010.8 hPa | 0 mm | 3.58 m/s, 145° | - | - |
| 1787634357 | 33.89° C | 11% | 1010.8 hPa | 0 mm | 3.13 m/s, 177° | - | - |
| 1787634059 | 33.89° C | 11% | 1010.8 hPa | 0 mm | 3.58 m/s, 223° | - | - |
| 1787633757 | 33.89° C | 11% | 1010.8 hPa | 0 mm | 4.47 m/s, 145° | - | - |
| 1787633459 | 34.44° C | 11% | 1010.8 hPa | 0 mm | 3.13 m/s, 214° | - | - |
| 1787633161 | 34.44° C | 11% | 1010.8 hPa | 0 mm | 3.13 m/s, 136° | - | - |
| 1787632860 | 34.44° C | 11% | 1010.8 hPa | 0 mm | 3.58 m/s, 147° | - | - |
* Rain latest hour (hover to see other rain measurements)
** Current wind speed in m/s (hover to see current wind gust speed)